Regional Weather Roundup
Issued by NWS

Home | Current Version | Previous Version | Graphics & Text | Print | Product List | Glossary On
Versions: 1 2 3 4 5 6 7 8 9 10 11 12 13 14 15 16 17 18 19 20 21 22 23 24 25 26 27 28 29 30 31 32 33 34 35 36 37 38 39 40 41 42 43 44 45 46 47 48 49 50
000
ASUS43 KMPX 281810
RWRMN
WEATHER ROUNDUP FOR MINNESOTA
NATIONAL WEATHER SERVICE TWIN CITIES/CHANHASSEN MN
100 PM CDT FRI AUG 28 2015


NOTE: "FAIR" INDICATES FEW OR NO CLOUDS BELOW 12,000 FEET WITH NO
SIGNIFICANT WEATHER AND/OR OBSTRUCTIONS TO VISIBILITY. N/A MEANS
CURRENT SKY AND/OR WEATHER CONDITIONS ARE NOT AVAILABLE.

MNZ060>063-068>070-281900-
   Twin Cities Metro

CITY           SKY/WX    TMP DP  RH WIND       PRES   REMARKS
TWIN CITIES    PTSUNNY   73  64  73 E8        30.01R
6HR MIN TEMP:  64; 6HR MAX TEMP:  73; 6HR PCP: TRACE;

ST PAUL        CLOUDY    72  64  76 E7        30.02R
CRYSTAL        PTSUNNY   76  63  64 SE9       29.99S
BLAINE         PTSUNNY   75  66  73 SE8       30.01S
LAKEVILLE      CLOUDY    72  64  78 SE6       30.00S
EDEN PRAIRIE   PTSUNNY   74  63  68 SE9       30.00R
6HR MIN TEMP:  65; 6HR MAX TEMP:  76; 6HR PCP: TRACE;

SOUTH ST PAUL  PTSUNNY   71  63  76 E7        30.01R
LAKE ELMO      FAIR      72  64  78 E7        30.03S
$$
MNZ001>005-007-008-013>017-022>024-027-028-281900-
   Northwest Minnesota

CITY           SKY/WX    TMP DP  RH WIND       PRES   REMARKS
BEMIDJI        PTSUNNY   76  67  71 SW10      29.95F
HALLOCK        MOSUNNY   77  68  73 S14G20    29.80F
ROSEAU         PTSUNNY   75  68  78 S9        29.84R
WARROAD        CLOUDY    72  66  83 SW5       29.86R
THIEF RVR FALL PTSUNNY  N/A N/A N/A S16       29.85F
CROOKSTON      PTSUNNY   79  68  69 SW17G24   29.87F
FOSSTON        SUNNY     77  64  65 S14       29.94F
DETROIT LAKES  MOSUNNY   73  64  73 SW7       29.99R
MOORHEAD       PTSUNNY   75  66  73 S9        29.94S
PARK RAPIDS    SUNNY     80  64  58 SW10      29.98R
MAHNOMEN       MOCLDY    76  67  73 SW10      29.95F
$$
MNZ006-009>011-018-025>026-281900-
   North Central Minnesota

CITY           SKY/WX    TMP DP  RH WIND       PRES   REMARKS
BAUDETTE       CLOUDY    71  65  81 SW17G23   29.85R
FLAG ISLAND    PTSUNNY   70  64  83 SE8       29.83F
INTL FALLS     CLOUDY    69  67  93 SW5       29.87F
6HR MIN TEMP:  60; 6HR MAX TEMP:  69; 6HR PCP:  0.03;

WASKISH        PTSUNNY   73  68  83 S9G16     29.87F
BIG FORK       PTSUNNY   75  66  73 SW7       29.95F
LONGVILLE      MOSUNNY   79  64  61 SW9       29.97F
GRAND RAPIDS     N/A     73  64  73 SW5       29.98F
CRANE LAKE     CLOUDY    66  64  94 S6        29.95F
ORR            PTSUNNY   72  64  78 SW8       29.91F
COOK           CLOUDY    68  66  94 SW7       29.97S
WALKER         MOCLDY    77  65  66 S12       29.96S
$$
MNZ012-019>021-037-281900-
   Northeast Minnesota

CITY           SKY/WX    TMP DP  RH WIND       PRES   REMARKS
DULUTH         MOSUNNY   75  63  66 W18       29.98S
6HR MIN TEMP:  61; 6HR MAX TEMP:  75;

ELY            MOSUNNY   72  64  78 W10       29.95F
HIBBING        PTSUNNY   73  65  75 VRB5      29.97S
EVELETH        CLOUDY    72  66  83 SW12      29.98F
DULUTH HARBOR  SUNNY     75  66  73 SW16      29.96F
TWO HARBORS    MOSUNNY   75  66  73 SW8       29.95S
SILVER BAY     CLOUDY    72  63  73 S7        29.95S
GRAND MARAIS     N/A     56  50  80 W7        29.96S
G MARAIS ARPRT SUNNY     66  55  68 S5        29.98R
$$
MNZ029>031-032-039>041-046>048-054>057-064-281900-
   West Central Minnesota

CITY           SKY/WX    TMP DP  RH WIND       PRES   REMARKS
FERGUS FALLS   CLOUDY    72  66  83 S7        29.96F
WHEATON        MOSUNNY   72  64  78 S10       29.98F
MORRIS         SUNNY     75  66  73 S10       29.96F
ALEXANDRIA     SUNNY     76  64  66 S12       29.99F
ELBOW LAKE     PTSUNNY   75  67  76 S10G16    29.97F
WADENA         SUNNY     75  63  64 S13       29.97S
GLENWOOD       SUNNY     75  64  69 S10       29.99F
APPLETON       MOSUNNY   77  64  65 S7        29.97F
BENSON         PTSUNNY   77  64  65 S8        29.98F
ORTONVILLE     MOSUNNY   75  64  69 S7        29.97F
MADISON        MOSUNNY   73  63  68 SE7       29.99S
WILLMAR        FAIR      77  64  65 S6        30.00F
$$
MNZ033>034-036-042>043-049>051-058-059-281900-
   Central Minnesota

CITY           SKY/WX    TMP DP  RH WIND       PRES   REMARKS
ST CLOUD       MOSUNNY   77  63  61 S9        29.99F
6HR MIN TEMP:  58; 6HR MAX TEMP:  77;

SAUK CENTRE    FAIR      75  64  68 S9        29.98F
PAYNESVILLE    MOSUNNY   75  62  64 E12       30.00F
AITKIN         SUNNY     79  66  65 S10       29.98R
PINE RIVER     MOSUNNY   79  64  61 S7        30.01R
BRAINERD       SUNNY     76  63  64 SW14      29.99R
STAPLES        MOSUNNY   77  63  61 S12       29.98S
LONG PRAIRIE   FAIR      75  63  64 S12       29.99F
LITTLE FALLS   SUNNY     75  61  60 S10       29.98F
LITCHFIELD     PTSUNNY   79  64  61 SE8       30.00F
BUFFALO        PTSUNNY   76  62  61 SE8       30.01S
MAPLE LAKE     PTSUNNY   77  65  67 SE8       30.01S
$$
MNZ037-044-045-052-053-281900-
   East Central Minnesota

CITY           SKY/WX    TMP DP  RH WIND       PRES   REMARKS
PRINCETON      SUNNY     79  63  57 S9        29.99F
MORA           SUNNY     75  63  64 S7        30.02S
CAMBRIDGE      SUNNY     79  63  57 S12       29.99S
RUSH CITY      SUNNY     75  65  71 S10       30.01S
MOOSE LAKE     SUNNY     77  63  61 SW10G18   29.97F
HINCKLEY       MOCLDY    75  64  69 SW6       30.01S
CLOQUET        PTSUNNY   77  63  61 SW12G21   29.98S
MCGREGOR       SUNNY     77  64  65 SW9       30.00R
$$
MNZ071>073-080-081-089-090-097-098-281900-
   Southwest Minnesota

CITY           SKY/WX    TMP DP  RH WIND       PRES   REMARKS
MONTEVIDEO     PTSUNNY   77  64  65 SW9       30.00S
GRANITE FALLS  CLOUDY    73  63  68 SE16      30.00F
CANBY          CLOUDY    73  65  77 E6        29.99F
MARSHALL       PTSUNNY   72  59  64 SE16      30.01R
REDWOOD FALLS  PTSUNNY   74  62  66 SE17G24   29.98S
OLIVIA         PTSUNNY   72  61  68 SE12G17   29.99S
PIPESTONE      PTSUNNY   70  61  73 SE15G24   29.97F
WINDOM         CLOUDY    66  61  82 E16G23    29.98S
WORTHINGTON    CLOUDY    64  61  88 E17G23    29.96S
JACKSON        CLOUDY    64  63  94 SE24G35   29.97F FOG
TRACY          PTSUNNY   72  64  76 SE21      29.99S
SLAYTON        CLOUDY    69  63  81 E12G25    29.99S
$$
MNZ065>067-074>077-082>085-091>093-281900-
   South Central Minnesota

CITY           SKY/WX    TMP DP  RH WIND       PRES   REMARKS
MANKATO        CLOUDY    68  61  77 SE17G23   29.99S
NEW ULM        PTSUNNY   72  63  73 SE15G25   29.99S
ST JAMES       RAIN      66  64  94 E14G21    30.00R
FAIRMONT       CLOUDY    64  57  77 E15       29.98S
GLENCOE        PTSUNNY   78  65  64 SE9G17    30.00R
FARIBAULT      CLOUDY    70  64  83 SE17G24   30.00S
OWATONNA       LGT RAIN  68  63  83 SE10      30.01S
WASECA         DRIZZLE   64  61  88 MISG      30.02S
ALBERT LEA     RAIN      63  61  94 SE12G18   30.02R
$$
MNZ078>079-086>088-094>096-281900-
   Southeast Minnesota

CITY           SKY/WX    TMP DP  RH WIND       PRES   REMARKS
ROCHESTER      LGT RAIN  62  60  93 SE10      30.04S FOG
6HR MIN TEMP:  62; 6HR MAX TEMP:  64; 6HR PCP:  0.46;

RED WING       CLOUDY    68  64  88 E12       30.00S
STANTON        LGT RAIN  70  63  80 SE16      29.98S
DODGE CENTER   RAIN      63  61  94 SE10G20   30.03S
WINONA         RAIN      64  64 100 SE9       30.05F
AUSTIN         DRIZZLE   61  57  88 SE10      30.02R
PRESTON        RAIN      59  56  90 SE8       30.04F
$$
ABBREVIATIONS USED IN REMARKS
   TC - TEMPERATURES IN CELSIUS
  WCI - WIND CHILL INDEX
   HX - HEAT INDEX
  VSB - VISIBILITY
$$


USA.gov is the U.S. government's official web portal to all federal, state and local government web resources and services.